Location: *
(29.8416°N, 6.5173°W)
Time: 14:54:40
(UTC+00:00)

Daily predictions for brighter satellites

Satellite Brightness Start Highest point End
(mag) Time Altitude Azimuth Time Altitude Azimuth Time Altitude Azimuth
USA 267 4.2 18:06:18 10° ENE 18:11:58 31° SE 18:17:37 10° S
SMAP 3.5 18:10:33 10° S 18:15:09 71° WSW 18:19:48 10° NNW
CZ-4B R/B 1.3 18:13:45 10° NNE 18:17:04 75° ESE 18:20:18 10° S
CZ-4B R/B 3.5 18:14:55 10° S 18:20:23 79° WSW 18:25:59 10° NNW
SL-24 R/B 4.5 18:17:06 10° S 18:21:21 71° WSW 18:25:45 10° NNW
Cosmos 1634 Rocket 4.4 18:15:35 10° N 18:21:49 73° W 18:28:05 10° S
Cosmos 1689 Rocket 3.3 18:21:26 10° NE 18:23:43 21° E 18:25:56 10° SSE
CZ-2D R/B 3.9 18:23:27 10° SE 18:26:58 34° ENE 18:30:28 10° N
Cosmos 773 Rocket 4.0 18:21:58 10° N 18:27:00 55° ENE 18:32:00 10° SSE
Cosmos 1818 3.6 18:21:45 10° SSW 18:27:09 88° WNW 18:32:36 10° NNE
YAOGAN 1 3.8 18:28:21 10° ESE 18:31:28 20° ENE 18:34:35 10° NNE
Cosmos 1892 Rocket 3.8 18:27:41 10° S 18:32:01 74° W 18:36:21 10° N
Helios 1A Rocket 4.4 18:33:51 10° ESE 18:36:27 17° ENE 18:39:05 10° NNE
SAR-Lupe-4 3.8 18:33:48 10° NNE 18:37:15 45° E 18:40:40 10° S
Meteor 2-10 Rocket 3.7 18:32:38 10° N 18:37:52 48° E 18:42:51 10° SSE
Cosmos 1603 4.1 18:32:20 10° NNW 18:38:01 70° WSW 18:43:43 10° S
Cosmos 1606 Rocket 3.9 18:34:21 10° N 18:38:44 72° W 18:43:08 10° S
Abrixas rocket 2.4 18:36:59 10° WNW 18:39:34 54° SW 18:42:08 10° SE
Cosmos 1092 Rocket 4.5 18:34:51 10° SSE 18:40:28 37° E 18:46:02 10° NNE
DELTA 2 R/B (1) 3.5 18:37:25 10° WNW 18:42:59 80° NNE 18:48:33 10° ESE
GOES 2 Rocket 4.3 18:40:18 10° WSW 18:46:26 74° S 18:53:20 15° E
SAR-Lupe-1 4.0 18:44:36 10° NNE 18:48:08 66° ESE 18:51:40 10° S
SJ 16-02 1.4 18:45:01 10° SSW 18:49:25 80° WNW 18:53:50 10° NNE
Cosmos 2228 4.3 18:46:18 10° NNW 18:50:20 43° W 18:54:23 10° SSW
MOS 1 Rocket 3.3 18:47:00 10° N 18:51:15 70° WNW 18:55:32 10° SSW
Cosmos 1937 Rocket 4.4 18:49:42 10° SSE 18:54:06 28° E 18:56:46 18° ENE
Nadezhda 4 Rocket 4.1 18:51:25 10° S 18:57:41 85° W 19:03:56 10° N
NOSS 2-1 (E) 3.0 18:54:09 10° SSW 18:57:46 59° ESE 18:59:32 24° NE
Cosmos 1538 Rocket 3.9 18:55:49 10° N 19:00:57 65° ENE 19:06:04 10° SSE
Aureole 3 3.2 18:58:27 10° NNE 19:01:24 35° E 19:04:08 10° SSE
ATLAS 3B R/B 3.9 18:55:00 10° NW 19:01:45 47° WSW 19:08:44 10° S
Cosmos 1703 3.2 18:59:36 10° S 19:03:25 58° E 19:07:02 11° NNE
X-37B 3.2 19:02:35 10° NW 19:04:03 13° NNW 19:05:31 10° N
Cosmos 1340 3.0 19:01:01 10° SSE 19:04:31 39° E 19:05:49 28° NE
Cosmos 1455 2.2 19:02:12 10° N 19:05:56 52° E 19:09:40 10° SSE
Cosmos 2058 Rocket 3.4 19:05:53 10° NNW 19:10:21 68° W 19:14:50 10° S
ARGOS 3.5 19:08:51 10° SE 19:13:48 40° ENE 19:18:48 10° N
Cosmos 44 3.3 19:10:36 10° SSW 19:15:10 78° WNW 19:18:46 18° NNE
SWIFT 4.2 19:12:18 10° SW 19:15:40 22° S 19:17:59 15° SE
ERS-2 4.4 19:19:52 10° NNW 19:22:52 25° WNW 19:25:51 10° SW
CSL-04 Debris 4.2 19:18:53 10° SSE 19:24:05 52° ENE 19:29:17 10° N
Cosmos 1626 Rocket 4.2 19:20:28 10° SSW 19:24:43 56° W 19:29:02 10° N
Lacrosse 5 3.3 19:21:36 10° N 19:24:15 21° NNE 19:24:15 21° NNE
CZ-4 R/B 1.8 19:23:59 10° S 19:28:06 64° W 19:32:09 10° NNW
Cosmos 1328 3.7 19:25:24 10° S 19:29:25 88° W 19:31:21 30° N
Cosmos 990 Rocket 4.3 19:26:40 10° SSW 19:31:50 66° WNW 19:36:25 13° N
CZ-2C R/B 2.6 19:27:19 14° NNE 19:32:12 72° ESE 19:37:47 10° S
Cosmos 2026 Rocket 3.8 19:28:43 10° S 19:34:46 86° E 19:40:56 10° N
Meteor 2-19 Rocket 4.3 19:33:40 10° S 19:39:45 69° E 19:44:22 18° NNE
Hubble Space Telescope 0.9 19:40:13 10° W 19:44:04 71° SW 19:44:04 71° SW
Okean-O 3.6 19:41:26 10° S 19:45:41 46° W 19:49:58 10° NNW
Cosmos 1758 Rocket 3.4 19:42:11 10° S 19:46:34 90° SW 19:46:34 90° SW
Cosmos 858 Rocket 4.5 19:42:31 10° SSW 19:47:47 83° WNW 19:49:36 42° N
Meteor 1-11 4.1 19:45:13 10° S 19:50:58 88° E 19:53:35 34° N
H-2A R/B 2.7 19:47:47 10° S 19:52:33 50° W 19:57:25 10° NNW
USA 267 3.7 19:51:34 28° NNE 19:55:01 55° NW 20:01:21 10° WSW
Cosmos 923 Rocket 4.1 19:57:19 10° NNW 20:02:39 76° WSW 20:03:59 51° S
Cosmos 2278 Rocket 2.2 19:57:17 10° SSW 20:02:22 71° SSE 20:02:22 71° SSE
Cosmos 158 Rocket 4.5 20:02:12 10° NNW 20:07:29 61° WSW 20:12:46 10° S
CSL-04 Rocket 4.4 20:10:06 10° S 20:15:16 51° W 20:20:33 10° NNW
Mugunghwa Rocket 4.5 20:21:09 10° W 20:28:17 59° SSW 20:28:17 59° SSW
